Location: Poughquag
(41.6090°N, 73.6820°W)
Time: 14:56:33
(UTC-04:00)

Courier 1B - Pass Details

Date: 30 May 2020
Orbit: 962 x 1209 km, 28.3° (Epoch: 05 July)

Event Time Altitude Azimuth Distance (km) Brightness Sun altitude
Exits shadow 04:25:49 10° 245° (WSW) 3,132 9.5 -9.6°
Maximum altitude 04:31:53 25° 194° (SSW) 2,208 8.9 -8.7°
Drops below altitude 10° 04:37:56 10° 142° (SE) 3,108 10.1 -7.9°
Sets 04:41:17 0° 130° (SE) 4,044 10.9 -7.4°
